Regional Weather Roundup
Issued by NWS

Home | Current Version | Previous Version | Text Only | Print | Product List | Glossary On
Versions: 1 2 3 4 5 6 7 8 9 10 11 12 13 14 15 16 17 18 19 20 21 22 23 24 25 26 27 28 29 30 31 32 33 34 35 36 37 38 39 40 41 42 43 44 45 46 47 48 49 50
637
ASUS45 KREV 270310
RWRNV
NEVADA REGIONAL WEATHER ROUNDUP
NATIONAL WEATHER SERVICE RENO NV
800 PM PDT TUE JUL 26 2016

NOTE: "FAIR" INDICATES FEW OR NO CLOUDS BELOW 12,000 FEET WITH NO
SIGNIFICANT WEATHER AND/OR OBSTRUCTIONS TO VISIBILITY.

NVZ001-003-004-270400-
WESTERN NEVADA

CITY           SKY/WX    TMP DP  RH WIND       PRES   REMARKS
RENO           CLEAR     91  25   9 W12       30.06R
CARSON CITY    FAIR      90  23   9 NW10G20   30.10S
MINDEN         FAIR      86  25  10 W7        30.10S
PYRAMID LAKE     N/A     93 N/A N/A SW2         N/A
FALLON         MOCLDY    93  28  10 NE5       29.98S
LOVELOCK       CLEAR     94  16   6 NW8       29.99S
HAWTHORNE      CLEAR     93  25   8 NW8       30.01R
$$

NVZ002-CAZ072-073-270400-
NORTHERN AND CENTRAL SIERRA

CITY           SKY/WX    TMP DP  RH WIND       PRES   REMARKS
S. LAKE TAHOE  CLEAR     71  27  19 CALM      30.24S
TRUCKEE        CLEAR     77  32  19 W6        30.23R
SQUAW VLY 8000 NOT AVBL
SUSANVILLE     CLEAR     93  30  10 SW8       30.04R
MAMMOTH LAKES    N/A     81  30  15 SW14G20   30.27F
BRIDGEPORT       N/A     77  28  16 VRB5      30.25R
$$

NVZ030-031-036-270400-
NORTHERN NEVADA

CITY           SKY/WX    TMP DP  RH WIND       PRES   REMARKS
ELKO           CLEAR     88  17   7 NW5       30.09R
WINNEMUCCA     CLEAR     89  22   8 NW5       30.03R
WENDOVER       CLEAR     93  30  10 NW12      29.99S
$$

NVZ035-037-270400-
CENTRAL NEVADA

CITY           SKY/WX    TMP DP  RH WIND       PRES   REMARKS
ELY            CLEAR     81  15   8 N6        30.16R
EUREKA           N/A     80  32  17 N9        30.15R
$$

NVZ013-014-270400-
SOUTH CENTRAL NEVADA

CITY           SKY/WX    TMP DP  RH WIND       PRES   REMARKS
TONOPAH        CLEAR     92  17   6 NW3       30.10S
$$

NVZ017-020-022-270400-
SOUTHERN NEVADA

CITY           SKY/WX    TMP DP  RH WIND       PRES   REMARKS
LAS VEGAS      PTCLDY   107  39  10 E5        29.75S
N. LAS VEGAS   CLEAR    105  41  11 E5        29.78S
NELLIS AFB     CLEAR    107  43  11 E1        29.75S
HENDERSON      CLEAR    105  51  16 SE6       29.83S
MERCURY        CLEAR     99  36  11 SW6       29.90R
$$




USA.gov is the U.S. government's official web portal to all federal, state and local government web resources and services.